Weather History for KAUN - November, 2010

Change the Weather History Date:

Friday, November 5, 2010

  Actual Average Record
Temperature  
Mean Temperature 69 °F -  
Max Temperature 78 °F 69 °F 87 °F (1949)
Min Temperature 60 °F 47 °F 35 °F (1973)
Cooling Degree Days 4    
Growing Degree Days 19 (Base 50)    
Moisture  
Dew Point 47 °F    
Average Humidity 46    
Maximum Humidity 59    
Minimum Humidity 31    
Precipitation  
Precipitation 0.00 in - - ()
Sea Level Pressure  
Sea Level Pressure 29.95 in    
Wind  
Wind Speed 5 mph (ESE)    
Max Wind Speed 9 mph    
Max Gust Speed -    
Visibility 10 miles    
Events      
Averages and records for this station are not official NWS values.
T = Trace of Precipitation, MM = Missing Value Source: NWS Daily Summary

Daily Weather History Graph

Daily Weather History Graph

Search for Another Location

Airport or City:

Trip Planner

Search our weather history database for the weather conditions in past years. The results will help you decide how hot, cold, wet, or windy it might be!

Date:

Astronomy

Nov. 05, 2010 Rise Set
Actual Time 7:36 AM PDT 5:59 PM PDT
Civil Twilight 7:08 AM PDT 6:27 PM PDT
Nautical Twilight 6:36 AM PDT 6:58 PM PDT
Astronomical Twilight 6:05 AM PDT 7:30 PM PDT
Moon 7:07 AM PDT (11/5) 5:26 PM PDT (11/5)
Length of Visible Light 11h 18m
Length of Day
10h 23m
Waning Crescent, 0% of the Moon is Illuminated
Nov 5
Waning Crescent
Nov 5
New
Nov 13
First Quarter
Nov 21
Full
Nov 28
Last Quarter

Hourly Weather History & Observations

Time (PDT) Temp. Dew Point Humidity Pressure Visibility Wind Dir Wind Speed Gust Speed Precip Events Conditions
12:10 AM 66.2 °F 50.0 °F 56% 29.98 in 10.0 mi East 9.2 mph - N/A   Clear
12:30 AM 64.4 °F 50.0 °F 59% 29.98 in 10.0 mi East 4.6 mph - N/A   Clear
12:50 AM 64.4 °F 48.2 °F 56% 29.98 in 10.0 mi East 4.6 mph - N/A   Clear
1:10 AM 64.4 °F 48.2 °F 56% 29.98 in 10.0 mi East 8.1 mph - N/A   Clear
1:30 AM 64.4 °F 48.2 °F 56% 29.97 in 10.0 mi East 5.8 mph - N/A   Clear
1:50 AM 62.6 °F 48.2 °F 59% 29.97 in 10.0 mi ESE 3.5 mph - N/A   Clear
2:10 AM 64.4 °F 46.4 °F 52% 29.97 in 10.0 mi East 5.8 mph - N/A   Clear
2:30 AM 64.4 °F 46.4 °F 52% 29.97 in 10.0 mi East 6.9 mph - N/A   Clear
2:50 AM 64.4 °F 46.4 °F 52% 29.97 in 10.0 mi ESE 8.1 mph - N/A   Clear
3:10 AM 64.4 °F 46.4 °F 52% 29.96 in 10.0 mi SE 5.8 mph - N/A   Clear
3:30 AM 64.4 °F 44.6 °F 49% 29.97 in 10.0 mi Calm Calm - N/A   Clear
3:50 AM 62.6 °F 44.6 °F 52% 29.96 in 10.0 mi Calm Calm - N/A   Clear
4:10 AM 62.6 °F 46.4 °F 55% 29.96 in 10.0 mi ESE 6.9 mph - N/A   Clear
4:30 AM 62.6 °F 46.4 °F 55% 29.95 in 10.0 mi East 3.5 mph - N/A   Clear
4:50 AM 62.6 °F 46.4 °F 55% 29.95 in 10.0 mi ESE 4.6 mph - N/A   Clear
5:10 AM 62.6 °F 46.4 °F 55% 29.95 in 10.0 mi East 3.5 mph - N/A   Clear
5:30 AM 62.6 °F 44.6 °F 52% 29.95 in 10.0 mi Calm Calm - N/A   Clear
5:50 AM 62.6 °F 44.6 °F 52% 29.94 in 10.0 mi Calm Calm - N/A   Clear
6:10 AM 62.6 °F 44.6 °F 52% 29.94 in 10.0 mi ESE 3.5 mph - N/A   Clear
6:30 AM 62.6 °F 42.8 °F 48% 29.94 in 10.0 mi East 6.9 mph - N/A   Clear
6:50 AM 62.6 °F 42.8 °F 48% 29.94 in 10.0 mi ESE 4.6 mph - N/A   Clear
7:10 AM 60.8 °F 42.8 °F 52% 29.93 in 10.0 mi ESE 3.5 mph - N/A   Clear
7:30 AM 62.6 °F 42.8 °F 48% 29.93 in 10.0 mi East 3.5 mph - N/A   Clear
7:50 AM 64.4 °F 42.8 °F 45% 29.93 in 10.0 mi ESE 5.8 mph - N/A   Clear
8:10 AM 64.4 °F 42.8 °F 45% 29.93 in 10.0 mi East 6.9 mph - N/A   Clear
8:30 AM 64.4 °F 42.8 °F 45% 29.94 in 10.0 mi East 8.1 mph - N/A   Clear
8:50 AM 64.4 °F 42.8 °F 45% 29.95 in 10.0 mi East 8.1 mph - N/A   Clear
9:10 AM 66.2 °F 44.6 °F 46% 29.95 in 10.0 mi East 5.8 mph - N/A   Clear
9:30 AM 68.0 °F 42.8 °F 40% 29.96 in 10.0 mi ESE 6.9 mph - N/A   Clear
9:50 AM 69.8 °F 42.8 °F 38% 29.96 in 10.0 mi ESE 4.6 mph - N/A   Clear
10:10 AM 69.8 °F 44.6 °F 40% 29.96 in 10.0 mi East 3.5 mph - N/A   Clear
10:30 AM 71.6 °F 44.6 °F 38% 29.96 in 10.0 mi East 4.6 mph - N/A   Clear
10:50 AM 73.4 °F 44.6 °F 36% 29.96 in 10.0 mi East 3.5 mph - N/A   Clear
11:10 AM 73.4 °F 44.6 °F 36% 29.97 in 10.0 mi Calm Calm - N/A   Clear
11:30 AM 75.2 °F 42.8 °F 31% 29.97 in 10.0 mi SSE 4.6 mph - N/A   Clear
11:50 AM 75.2 °F 42.8 °F 31% 29.97 in 10.0 mi SSE 5.8 mph - N/A   Clear
12:10 PM 75.2 °F 44.6 °F 34% 29.96 in 10.0 mi SSE 6.9 mph - N/A   Clear
12:30 PM 75.2 °F 44.6 °F 34% 29.96 in 10.0 mi South 4.6 mph - N/A   Clear
12:50 PM 77.0 °F 46.4 °F 34% 29.96 in 10.0 mi SSW 4.6 mph - N/A   Clear
1:10 PM 77.0 °F 46.4 °F 34% 29.95 in 10.0 mi South 5.8 mph - N/A   Clear
1:30 PM 77.0 °F 46.4 °F 34% 29.94 in 10.0 mi SW 4.6 mph - N/A   Clear
1:50 PM 78.8 °F 46.4 °F 32% 29.93 in 10.0 mi SW 4.6 mph - N/A   Clear
2:10 PM 75.2 °F 48.2 °F 38% 29.93 in 10.0 mi WSW 5.8 mph - N/A   Clear
2:30 PM 77.0 °F 48.2 °F 36% 29.92 in 10.0 mi SW 5.8 mph - N/A   Clear
2:50 PM 77.0 °F 50.0 °F 39% 29.92 in 10.0 mi West 4.6 mph - N/A   Clear
3:10 PM 75.2 °F 50.0 °F 41% 29.91 in 10.0 mi West 4.6 mph - N/A   Clear
3:30 PM 73.4 °F 51.8 °F 47% 29.92 in 10.0 mi WNW 3.5 mph - N/A   Clear
3:50 PM 73.4 °F 53.6 °F 50% 29.92 in 10.0 mi Calm Calm - N/A   Clear
4:10 PM 73.4 °F 51.8 °F 47% 29.92 in 10.0 mi Calm Calm - N/A   Clear
4:30 PM 73.4 °F 53.6 °F 50% 29.91 in 10.0 mi Calm Calm - N/A   Clear
4:50 PM 73.4 °F 53.6 °F 50% 29.91 in 10.0 mi Calm Calm - N/A   Clear
5:10 PM 71.6 °F 51.8 °F 50% 29.91 in 10.0 mi Calm Calm - N/A   Clear
5:30 PM 71.6 °F 53.6 °F 53% 29.90 in 10.0 mi Calm Calm - N/A   Partly Cloudy
5:50 PM 68.0 °F 53.6 °F 60% 29.90 in 10.0 mi Calm Calm - N/A   Partly Cloudy
6:10 PM 66.2 °F 53.6 °F 64% 29.89 in 10.0 mi Calm Calm - N/A   Clear
6:30 PM 64.4 °F 51.8 °F 64% 29.90 in 10.0 mi Calm Calm - N/A   Mostly Cloudy
6:50 PM 62.6 °F 53.6 °F 72% 29.90 in 10.0 mi Calm Calm - N/A   Mostly Cloudy
7:10 PM 62.6 °F 51.8 °F 68% 29.90 in 10.0 mi Calm Calm - N/A   Scattered Clouds
7:30 PM 62.6 °F 53.6 °F 72% 29.90 in 10.0 mi Calm Calm - N/A   Partly Cloudy
7:50 PM 59.0 °F 53.6 °F 82% 29.90 in 10.0 mi Calm Calm - N/A   Clear
8:10 PM 57.2 °F 53.6 °F 88% 29.90 in 10.0 mi Calm Calm - N/A   Clear
8:30 PM 57.2 °F 53.6 °F 88% 29.90 in 10.0 mi Calm Calm - N/A   Clear
8:50 PM 62.6 °F 53.6 °F 72% 29.90 in 10.0 mi Calm Calm - N/A   Clear
9:10 PM 60.8 °F 53.6 °F 77% 29.90 in 10.0 mi Calm Calm - N/A   Clear
9:30 PM 59.0 °F 53.6 °F 82% 29.90 in 10.0 mi Calm Calm - N/A   Clear
9:50 PM 60.8 °F 53.6 °F 77% 29.90 in 10.0 mi Calm Calm - N/A   Clear
10:10 PM 62.6 °F 53.6 °F 72% 29.90 in 10.0 mi East 5.8 mph - N/A   Clear
10:30 PM 62.6 °F 53.6 °F 72% 29.91 in 10.0 mi Calm Calm - N/A   Clear
10:50 PM 60.8 °F 53.6 °F 77% 29.91 in 10.0 mi Calm Calm - N/A   Clear
11:10 PM 59.0 °F 53.6 °F 82% 29.91 in 10.0 mi Calm Calm - N/A   Clear
11:30 PM 55.4 °F 51.8 °F 88% 29.92 in 10.0 mi Calm Calm - N/A   Clear
11:50 PM 57.2 °F 53.6 °F 88% 29.92 in 10.0 mi Calm Calm - N/A   Clear